Location: Unspecified
(49.8670°N, 0.0000°E)
Time: 17:17:39
(UTC+00:00)

S-56A Canister/Altair - Pass Details

Date: 22 June 2019
Orbit: 632 x 2500 km, 38.9° (Epoch: 17 July)

Event Time Altitude Azimuth Distance (km) Brightness Sun altitude
Rises 17:39:04 0° 249° (WSW) 4,626 12.5 21.3°
Reaches altitude 10° 17:42:57 10° 241° (WSW) 3,316 11.6 20.7°
Maximum altitude 17:49:38 31° 182° (S) 1,651 9.3 19.6°
Drops below altitude 10° 17:54:30 10° 121° (ESE) 2,386 9.6 18.9°
Sets 17:56:51 0° 110° (ESE) 3,166 10.1 18.5°
